Home   Weather   Enid   Past weeks
Flag for USA

Past Weather in Enid, Oklahoma, USA — Yesterday and Last 2 Weeks

Now
84 °F

Sunny.


Feels Like: 86 °F
Forecast: 84 / 62 °F
Wind: 9 mph from East

Location: Vance Air Force Base / Enid

Current Time: Jun 17, 2019 at 6:13:44 pm

Latest Report: Jun 17, 2019 at 4:56 pm


Visibility: 10 mi

Pressure: 29.88 "Hg

Humidity: 51%

Dew Point: 64 °F

Location of EnidLocation

Past Weather in Enid — Graph

°F

Enid Temperature Yesterday

Maximum temperature yesterday: 75 °F (at 12:06 am)
Minimum temperature yesterday: 64 °F (at 7:11 am)
Average temperature yesterday: 68 °F

High & Low Weather Summary for the Past Weeks

 TemperatureHumidityPressure
High89 °F (Jun 15, 5:56 pm)100% (Jun 3, 12:56 am)30.42 "Hg (Jun 3, 12:56 am)
Low54 °F (Jun 13, 5:22 am)29% (Jun 10, 5:56 pm)29.68 "Hg (Jun 14, 6:56 pm)
Average72 °F80%29.93 "Hg
* Reported Jun 2 3:56 pm — Jun 17 3:56 pm, Enid. Weather by CustomWeather, © 2019

Note: Actual official high and low records may vary slightly from our data, if they occured in-between our weather recording intervals... More about our weather records

Advertising

Enid Weather History for the Previous 24 Hours

Scroll right to see more
 ConditionsComfort  
Time TempWeatherWind HumidityBarometerVisibility
3:56 pm
Mon, Jun 17
86 °FSunny.7 mph49%29.90 "Hg10 mi
2:56 pm84 °FSunny.6 mph53%29.90 "Hg10 mi
1:56 pm83 °FSunny.7 mph59%29.91 "Hg10 mi
12:56 pm81 °FPassing clouds.6 mph62%29.93 "Hg10 mi
11:56 am79 °FPassing clouds.8 mph67%29.93 "Hg10 mi
10:56 am77 °FSunny.5 mph74%29.93 "Hg10 mi
9:56 am75 °FSunny.6 mph80%29.93 "Hg10 mi
8:56 am71 °FSunny.6 mph100%29.92 "Hg10 mi
7:56 am68 °FSunny.6 mph100%29.90 "Hg10 mi
6:56 am62 °FSunny.3 mph100%29.89 "Hg10 mi
5:56 am62 °FClear.5 mph100%29.88 "Hg10 mi
5:21 am63 °FClear.3 mph100%29.88 "Hg10 mi
4:56 am63 °FClear.5 mph100%29.88 "Hg10 mi
3:56 am63 °FClear.6 mph100%29.86 "Hg10 mi
2:56 am63 °FClear.7 mph100%29.85 "Hg10 mi
1:56 am63 °FClear.6 mph100%29.86 "Hg10 mi
12:56 am64 °FClear.3 mph100%29.86 "Hg10 mi
11:56 pm
Sun, Jun 16
65 °FClear.3 mph100%29.87 "Hg10 mi
10:56 pm65 °FClear.5 mph100%29.86 "Hg10 mi
9:56 pm67 °FClear.8 mph100%29.85 "Hg10 mi
8:56 pm70 °FClear.6 mph100%29.84 "Hg10 mi
7:56 pm72 °FSunny.5 mph94%29.83 "Hg10 mi
6:56 pm74 °FSunny.9 mph88%29.82 "Hg10 mi
Weather by CustomWeather, © 2019

See weather overview